Location: NJAA Observatory
(40.6819°N, 74.8979°W)
Time: 16:21:37
(UTC-04:00)

Iridium 56 - Visible Passes

Search period start: 25 April 2017 00:00
Search period end: 05 May 2017 00:00
Orbit: 776 x 779 km, 86.4° (Epoch: 24 April)

Date Brightness Start Highest point End Pass type
(mag) Time Alt. Az. Time Alt. Az. Time Alt. Az.
25 Apr 7.9 00:42:28 10° NW 00:44:17 14° WNW 00:44:17 14° WNW visible
25 Apr 6.7 22:26:58 10° NNE 22:30:32 29° ENE 22:30:32 29° ENE visible
26 Apr 7.3 00:07:49 10° NNW 00:11:01 25° WNW 00:11:01 25° WNW visible
26 Apr 7.2 21:54:19 10° NNE 21:57:18 18° ENE 21:57:18 18° ENE visible
26 Apr 6.5 23:33:49 10° NNW 23:37:47 44° NW 23:37:47 44° NW visible
27 Apr 5.8 23:00:09 10° N 23:04:32 63° N 23:04:32 63° N visible
28 Apr 8.2 00:44:30 10° WNW 00:45:01 10° WNW 00:45:01 10° WNW visible
28 Apr 6.0 22:26:47 10° N 22:31:18 45° ENE 22:31:18 45° ENE visible
29 Apr 7.6 00:08:27 10° NW 00:11:47 20° WNW 00:11:47 20° WNW visible
29 Apr 6.7 21:53:46 10° NNE 21:58:05 25° ENE 21:58:05 25° ENE visible
29 Apr 6.7 23:34:08 10° NNW 23:38:34 35° WNW 23:38:34 35° WNW visible
30 Apr 7.3 21:21:30 10° NE 21:24:13 14° ENE 21:24:52 14° E visible
30 Apr 5.7 23:00:16 10° N 23:05:21 66° W 23:05:21 66° W visible
01 May 5.4 22:26:42 10° N 22:31:55 68° E 22:32:09 67° ESE visible
02 May 7.9 00:09:28 10° NW 00:11:58 14° WNW 00:12:38 13° W visible
02 May 6.2 21:53:28 10° NNE 21:58:17 36° E 21:58:58 35° E visible
02 May 7.2 23:34:35 10° NNW 23:38:46 25° W 23:39:27 24° W visible
03 May 6.9 21:20:40 10° NNE 21:24:31 20° ENE 21:25:47 19° E visible
03 May 6.3 23:00:29 10° NNW 23:05:27 45° W 23:06:16 42° WSW visible
04 May 7.5 20:49:17 10° ENE 20:50:35 11° ENE 20:51:53 10° E visible
04 May 5.5 22:26:45 10° N 22:31:59 84° W 22:33:06 57° S visible
